{"data":{"norad_id":64881,"intl_designator":"2025-155F","name":"239ALFEROV (RS61S)","alt_names":[],"object_type":"PAYLOAD","status":"ACTIVE","operator":null,"country":"CIS","launch_date":"2025-07-25","launch_site_code":"VOSTO","launch_vehicle":null,"mission":null,"orbit_class":"UNKNOWN","rcs_meters":null,"size_class":null,"mass_kg":null,"dimensions":null,"purposes":["comms"],"wikipedia_slug":null,"has_3d_model":false,"image_url":null,"decayed_at":null,"tle_current":{"epoch":"2026-05-25T04:06:53.115840Z","epoch_age_seconds":54240,"freshness":"FRESH","line1":"1 64881U 25155F   26145.17144810  .00013795  00000+0  44537-3 0  9999","line2":"2 64881  97.4539 114.2601 0004928 251.3610 108.7096 15.32230394 77289","mean_motion":15.32230394,"eccentricity":0.0004928,"inclination_deg":97.4539,"raan_deg":114.2601,"arg_perigee_deg":251.361,"mean_anomaly_deg":108.7096,"bstar":0.00044537,"rev_number":7728,"period_min":93.980644532235,"perigee_km":465.78502676086,"apogee_km":472.53372206748,"semimajor_km":6847.2963744142,"source":"CELESTRAK","updated_at":"2026-05-25T13:38:23.327865Z"}}}